TimeMST,TemperatureF,Dew PointF,Humidity,Sea Level PressureIn,VisibilityMPH,Wind Direction,Wind SpeedMPH,Gust SpeedMPH,PrecipitationIn,Events,Conditions,WindDirDegrees,DateUTC
12:57 AM,30.9,5.0,33,29.99,10.0,East,10.4,16.1,N/A,,Clear,90,2012-02-24 07:57:00
1:57 AM,30.0,5.0,35,30.01,10.0,East,11.5,-,N/A,,Clear,80,2012-02-24 08:57:00
2:57 AM,28.9,5.0,36,30.00,10.0,East,11.5,-,N/A,,Clear,80,2012-02-24 09:57:00
3:57 AM,28.0,1.9,33,30.01,10.0,ENE,11.5,23.0,N/A,,Clear,70,2012-02-24 10:57:00
4:57 AM,28.0,1.9,33,30.03,10.0,ENE,10.4,-,N/A,,Clear,70,2012-02-24 11:57:00
5:57 AM,28.0,1.0,31,30.06,10.0,East,8.1,-,N/A,,Clear,80,2012-02-24 12:57:00
6:57 AM,27.0,1.9,34,30.12,10.0,ENE,13.8,20.7,N/A,,Clear,60,2012-02-24 13:57:00
7:57 AM,28.9,1.9,32,30.14,10.0,ENE,13.8,20.7,N/A,,Clear,70,2012-02-24 14:57:00
8:57 AM,30.9,3.0,31,30.18,10.0,ENE,16.1,24.2,N/A,,Clear,70,2012-02-24 15:57:00
9:57 AM,34.0,5.0,30,30.20,10.0,East,15.0,21.9,N/A,,Clear,90,2012-02-24 16:57:00
10:57 AM,36.0,3.9,26,30.22,10.0,ENE,13.8,21.9,N/A,,Clear,70,2012-02-24 17:57:00
11:57 AM,39.9,3.9,22,30.21,10.0,East,16.1,-,N/A,,Clear,80,2012-02-24 18:57:00
12:57 PM,42.1,1.0,18,30.18,10.0,ENE,15.0,20.7,N/A,,Clear,70,2012-02-24 19:57:00
1:57 PM,45.0,1.0,16,30.15,10.0,East,8.1,-,N/A,,Clear,90,2012-02-24 20:57:00
2:57 PM,46.9,1.0,15,30.14,10.0,ENE,6.9,-,N/A,,Clear,70,2012-02-24 21:57:00
3:57 PM,48.0,1.0,14,30.14,10.0,NE,5.8,-,N/A,,Clear,40,2012-02-24 22:57:00
4:57 PM,46.9,1.9,16,30.13,10.0,ENE,5.8,-,N/A,,Clear,60,2012-02-24 23:57:00
5:57 PM,44.1,3.9,19,30.16,10.0,East,3.5,-,N/A,,Clear,100,2012-02-25 00:57:00
6:57 PM,35.1,7.0,31,30.21,10.0,Calm,Calm,-,N/A,,Clear,0,2012-02-25 01:57:00
7:57 PM,28.9,6.1,38,30.24,10.0,Calm,Calm,-,N/A,,Clear,0,2012-02-25 02:57:00
8:57 PM,27.0,7.0,43,30.25,10.0,Calm,Calm,-,N/A,,Clear,0,2012-02-25 03:57:00
9:57 PM,26.1,9.0,49,30.24,10.0,Calm,Calm,-,N/A,,Clear,0,2012-02-25 04:57:00
10:57 PM,24.1,9.0,53,30.23,10.0,Calm,Calm,-,N/A,,Clear,0,2012-02-25 05:57:00
11:57 PM,23.0,9.0,55,30.20,10.0,Calm,Calm,-,N/A,,Clear,0,2012-02-25 06:57:00